sat.trackr.live / text

‹ back to catalog

INTELSAT 34 (IS-34)

NORAD 40874 · 2015-039A

PAYLOAD ACTIVE UNKNOWN

§ Identity

Operator
Country
ITSO
Launch date
2015-08-20
Launch site
FRGUI
Launch vehicle
Mass (kg)
RCS (m²)
16.57

Purposes: comms

External: N2YO · Heavens-Above · Gunter

§ Orbital elements

Epoch: 2026-09-19T21:50:23.307072Z

Period
1,436.08 min
Inclination
0.0049°
Eccentricity
0.0000366
Mean motion
1.00272882 rev/d
Perigee alt
35,784.7 km
Apogee alt
35,787.8 km
Semi-major
42,164.4 km
B*
0.0000e+0
RAAN
305.8992°
Arg perigee
96.6647°
Mean anomaly
228.3677°
Rev number
4,058

§ Raw data

INTELSAT 34 (IS-34)1 40874U 15039A   26262.90999198 -.00000290  00000+0  00000+0 0  99932 40874   0.0049 305.8992 0000366  96.6647 228.3677  1.00272882 40589

JSON: /api/v1/satellites/40874 · /tle

For live sub-satellite position, see the globe view (requires WebGL).

§ Visibility from observer

Set your observer location to see the next 7 days of passes ≥ 10°. The values pass through the URL so the page stays shareable.

No JS? Fill the form by hand. The geolocation button needs JavaScript.